Wind_Speed
18 18 19 19 19 18 17 17 18 16 16 15 15 14 14 14 13 13 15 14 15 15 15 15 14 13 12 12 12 11 11 10 10
21 21 20 21 21 21 21 20 20 20 20 19 17 17 16 16 15 14 15 14 17 16 16 16 15 14 14 13 13 12 12 11 11
24 24 24 24 24 24 23 24 24 23 22 22 22 20 20 18 17 15 15 15 17 18 17 17 16 16 15 14 14 13 12 12 11
28 28 28 27 27 27 26 26 27 26 26 25 25 24 24 22 20 18 16 15 17 18 18 18 17 17 16 15 15 14 13 13 12
31 31 30 29 29 30 30 30 29 30 30 29 29 28 26 25 23 21 19 17 18 18 18 19 19 18 18 17 16 16 15 14 13
29 31 32 31 31 32 32 33 33 33 33 33 33 32 30 27 26 24 22 20 19 19 19 19 20 19 19 18 17 17 16 15 14
27 29 31 31 32 34 34 34 34 36 37 36 36 36 34 31 29 27 25 24 22 21 20 20 20 20 20 19 18 16 15 14 13
21 24 27 29 31 33 35 37 38 37 38 38 38 39 37 34 32 30 28 27 25 24 22 21 21 20 20 19 18 17 15 14 13
22 22 23 25 27 29 33 37 39 42 41 42 41 40 39 38 35 32 31 30 28 26 26 24 23 22 21 20 19 18 17 15 15
22 23 24 26 28 32 35 36 39 42 44 44 43 43 41 40 38 36 34 33 32 29 29 28 26 24 23 22 22 21 20 19 18
22 24 26 27 30 33 37 40 42 42 44 47 44 43 41 40 39 38 36 36 36 34 30 30 28 27 26 26 25 25 24 24 23
23 24 26 29 29 30 35 41 42 43 43 46 51 47 41 40 35 36 37 37 34 34 33 31 31 30 30 29 28 28 28 28 27
25 26 29 32 31 30 30 37 40 37 38 40 45 50 46 41 39 35 35 36 34 33 33 31 32 33 33 33 32 32 32 32 30
26 28 31 33 32 31 31 31 33 37 36 36 39 43 48 45 45 37 35 35 34 34 33 34 34 36 36 36 37 37 37 36 34
25 27 31 32 30 30 31 29 26 29 31 32 32 36 43 42 42 45 36 34 33 36 35 35 36 39 42 42 41 41 42 41 39
26 27 28 29 30 30 32 28 26 22 20 22 24 25 32 39 37 42 36 36 38 33 42 33 45 41 40 42 47 50 48 40 38
24 25 27 28 28 30 30 27 23 17 15 13 13 13 23 31 35 33 27 27 30 37 40 47 33 31 37 42 46 59 40 45 45
22 23 24 25 26 27 26 22 20 14 7 9 7 5 12 17 23 28 28 14 17 27 40 41 36 28 31 25 31 25 27 20 30
22 21 21 22 23 23 22 17 16 13 5 2 2 7 6 8 9 12 15 20 18 17 28 30 28 25 25 33 26 42 29 33 33
23 22 20 20 20 19 18 14 9 10 7 4 5 9 10 11 10 10 11 11 11 15 14 19 20 9 6 12 14 24 34 22 34
Wind_Direction
288 289 281 277 278 278 278 276 276 272 265 267 270 269 270 274 273 263 255 237 248 238 236 237 233 235 238 243 244 246 248 250 255
282 278 276 276 273 271 270 270 269 270 268 265 264 267 269 270 273 272 261 245 244 246 242 240 238 236 236 238 240 241 244 246 250
279 274 270 267 268 268 264 264 264 264 263 262 264 263 265 266 267 268 264 253 243 240 241 240 241 240 239 241 243 246 248 251 254
284 281 277 274 270 266 265 263 261 260 261 259 259 261 262 262 262 262 263 260 252 241 238 239 240 242 243 243 244 246 249 251 254
281 279 278 275 271 266 263 262 262 262 260 260 258 255 257 259 259 259 257 255 254 251 244 241 240 241 244 246 248 249 251 254 255
288 283 278 272 268 265 262 260 259 259 258 259 259 257 255 254 255 256 256 251 249 251 248 247 244 243 243 245 250 253 253 253 253
288 285 284 280 272 267 262 258 256 256 257 255 257 258 259 255 252 252 252 253 248 247 249 249 248 248 247 245 242 244 249 251 250
313 302 293 289 285 279 273 261 254 251 253 254 253 256 257 255 249 248 251 250 248 247 246 246 247 248 248 248 246 240 235 235 238
317 313 308 302 295 286 276 271 264 253 248 250 250 248 252 255 253 245 245 249 248 245 247 245 244 245 245 244 242 241 239 238 237
318 315 309 305 299 294 287 276 263 258 251 245 245 249 247 248 252 252 245 245 247 244 244 244 244 245 245 242 242 242 242 242 243
323 320 316 311 303 292 285 279 272 258 251 243 243 242 249 243 246 250 248 245 244 243 240 244 244 246 247 247 246 246 248 249 249
324 321 319 315 309 298 287 281 276 271 256 247 241 241 236 238 240 246 246 248 245 244 241 242 244 246 247 248 250 251 251 251 250
325 328 332 329 321 315 296 283 282 275 269 256 246 241 239 236 237 238 244 246 249 246 247 245 248 249 249 248 248 249 251 250 250
335 338 339 336 332 324 314 299 286 279 270 258 249 240 236 237 236 237 238 242 248 252 254 252 250 250 251 250 249 248 248 248 249
337 343 346 341 337 333 326 313 296 284 272 261 247 244 236 231 238 238 244 243 241 247 253 257 255 251 250 247 248 247 247 246 247
342 349 350 347 345 344 336 321 321 315 286 267 249 244 239 231 233 231 238 244 244 242 247 252 249 250 251 247 249 246 245 243 245
342 348 354 355 353 346 342 331 334 332 294 278 261 247 236 230 231 235 237 246 254 244 250 241 249 256 268 244 255 250 239 243 237
337 345 353 356 355 349 352 345 349 352 335 271 258 242 230 242 230 243 254 267 282 257 268 258 268 270 255 234 234 223 214 214 214
329 336 346 352 353 352 352 357 1 359 346 248 216 193 193 209 241 254 255 264 287 265 259 274 268 285 271 248 286 259 246 242 233
327 329 337 342 347 348 347 358 357 0 11 336 189 177 199 222 233 252 259 262 266 271 251 251 280 249 253 285 321 282 261 271 249
Height
3160 3160 3160 3160 3159 3159 3159 3158 3158 3158 3158 3157 3157 3156 3156 3155 3154 3154 3154 3156 3156 3156 3157 3157 3158 3159 3160 3160 3161 3161 3162 3162 3162
3155 3155 3155 3154 3154 3154 3154 3154 3154 3154 3154 3154 3154 3153 3153 3153 3152 3152 3151 3152 3153 3153 3154 3155 3155 3156 3157 3158 3158 3159 3159 3160 3160
3149 3149 3148 3148 3149 3149 3149 3149 3149 3149 3149 3150 3150 3150 3150 3150 3150 3149 3149 3149 3149 3150 3151 3152 3153 3153 3154 3155 3156 3156 3157 3157 3158
3144 3143 3143 3143 3143 3144 3144 3144 3143 3144 3144 3144 3145 3145 3145 3145 3146 3146 3146 3146 3146 3146 3146 3148 3149 3150 3151 3152 3153 3153 3154 3155 3155
3136 3136 3136 3136 3136 3136 3137 3138 3138 3138 3139 3139 3139 3139 3140 3141 3141 3142 3142 3143 3143 3143 3143 3144 3145 3146 3148 3149 3150 3151 3152 3152 3152
3130 3128 3128 3128 3128 3128 3129 3130 3130 3131 3131 3132 3132 3133 3134 3136 3136 3137 3138 3139 3139 3140 3140 3141 3142 3142 3143 3145 3147 3148 3149 3149 3150
3124 3122 3121 3121 3120 3120 3120 3121 3122 3122 3122 3124 3125 3125 3127 3129 3131 3132 3133 3133 3135 3135 3136 3137 3138 3139 3140 3141 3142 3143 3145 3146 3147
3120 3118 3117 3115 3114 3113 3112 3112 3112 3113 3113 3115 3116 3117 3119 3121 3124 3126 3127 3128 3129 3130 3131 3132 3134 3135 3137 3138 3139 3140 3140 3142 3143
3116 3114 3112 3109 3107 3105 3104 3103 3103 3102 3103 3104 3105 3107 3109 3112 3115 3118 3120 3121 3123 3125 3126 3127 3129 3130 3132 3134 3135 3136 3138 3139 3140
3112 3109 3107 3104 3101 3097 3094 3092 3091 3090 3092 3093 3094 3097 3100 3103 3106 3110 3113 3114 3116 3119 3120 3121 3124 3126 3128 3129 3131 3132 3134 3135 3136
3107 3104 3100 3097 3093 3089 3084 3080 3077 3077 3077 3079 3083 3085 3089 3092 3096 3100 3104 3106 3109 3112 3114 3115 3117 3120 3122 3124 3126 3128 3129 3130 3131
3101 3097 3093 3089 3084 3079 3075 3070 3066 3064 3066 3066 3069 3073 3077 3081 3086 3091 3093 3097 3101 3104 3106 3109 3111 3113 3116 3118 3120 3122 3123 3125 3126
3095 3091 3086 3080 3074 3068 3064 3060 3056 3054 3053 3055 3058 3061 3066 3071 3076 3080 3085 3088 3092 3096 3099 3102 3104 3106 3109 3111 3113 3115 3116 3118 3119
3089 3085 3079 3072 3066 3060 3054 3050 3046 3043 3041 3041 3044 3049 3054 3060 3066 3071 3075 3079 3082 3086 3091 3094 3097 3099 3101 3103 3105 3107 3108 3110 3112
3085 3079 3072 3066 3060 3053 3048 3042 3038 3034 3031 3030 3033 3038 3043 3051 3057 3063 3068 3069 3074 3078 3082 3085 3088 3090 3091 3093 3095 3098 3100 3101 3104
3081 3075 3069 3062 3055 3049 3042 3036 3031 3028 3026 3024 3027 3030 3034 3040 3051 3056 3062 3066 3068 3072 3073 3077 3073 3078 3083 3083 3085 3087 3088 3091 3094
3076 3071 3065 3059 3053 3047 3039 3033 3028 3025 3023 3022 3024 3028 3032 3036 3043 3048 3055 3060 3063 3065 3065 3068 3064 3061 3075 3070 3075 3078 3078 3079 3081
3073 3068 3061 3056 3051 3045 3038 3032 3027 3024 3022 3022 3024 3026 3030 3035 3041 3047 3049 3054 3056 3059 3056 3059 3064 3066 3068 3064 3067 3066 3069 3069 3070
3070 3065 3059 3053 3049 3044 3039 3032 3028 3026 3024 3024 3024 3027 3030 3035 3040 3044 3047 3052 3052 3053 3057 3059 3061 3058 3055 3057 3059 3062 3062 3062 3064
3067 3062 3057 3051 3047 3043 3039 3034 3030 3027 3026 3025 3025 3027 3030 3035 3038 3042 3046 3047 3048 3050 3050 3051 3052 3049 3050 3052 3050 3055 3058 3057 3061